Weather Service Report


515 
ASUS41 KAKQ 210310
RWRAKQ

REGIONAL WEATHER ROUNDUP
NATIONAL WEATHER SERVICE WAKEFIELD VA
1100 PM EDT MON OCT 20 2014

Note: "fair" indicates few or no clouds below 12,000 feet with no
significant weather and/or obstructions to visibility. * = Denotes
station may not report precipitation (e.g., rain,snow,etc.),
thunder or fog.

VAZ042-051-052>054-056-210400-
NORTHERN VIRGINIA
  
CITY           SKY/WX    TMP DP  RH WIND       PRES   REMARKS
WASH NATIONAL  LGT RAIN  59  47  64 S8        29.97S                  
DULLES         LGT RAIN  56  48  74 S13G22    29.95F                  
FORT BELVOIR   LGT RAIN  54  52  94 CALM      29.97S                  
QUANTICO       LGT RAIN  60  46  59 SW6       29.98R                  
FREDERICKSBRG* LGT RAIN  59  47  66 S7        29.96S                  
STAFFORD*      LGT RAIN  55  46  71 CALM      30.00S                  
WARRENTON      CLOUDY    56  54  92 SE6       29.94F                  
CULPEPER*      CLOUDY    57  52  82 CALM      29.95F                  
MANASSAS*      CLOUDY    55  54  94 SE6       29.96S                  
LEESBURG*      CLOUDY    55  54  94 CALM      29.94F                  
WINCHESTER     CLOUDY    54  48  82 NW3       29.93S                  
FRONT ROYAL*   CLOUDY    52  46  82 CALM      29.92F                  
LURAY*         CLOUDY    55  52  88 CALM      29.93F                  
$$

VAZ048-049-060>072-079>083-210400-
CENTRAL AND SOUTH CENTRAL VIRGINIA...AND NORTH CENTRAL NORTH CAROLINA
  
CITY           SKY/WX    TMP DP  RH WIND       PRES   REMARKS
RICHMOND       PTCLDY    56  44  64 CALM      29.97S                  
CHESTERFIELD*  MOCLDY   N/A N/A N/A CALM      29.98S                  
PETERSBURG*    MOCLDY    49  47  93 CALM      29.99R                  
HANOVER        CLOUDY    55  46  71 CALM      29.98F                  
TAPPAHANNOCK*  MOCLDY    48  44  83 CALM      29.98F                  
CHARLOTTSVILLE CLOUDY    54  51  90 CALM      29.94F                  
ORANGE*        CLOUDY    57  50  77 CALM      29.97S                  
LOUISA*        CLOUDY    57  46  67 CALM      29.94F                  
FARMVILLE*     CLOUDY    57  46  67 CALM      29.95R                  
CREWE*         CLOUDY    55  46  72 CALM      29.97S                  
FORT PICKETT*  MOCLDY    55  46  72 S3        29.98S                  
LUNENBURG*     CLOUDY    55  48  77 CALM      29.98S                  
SOUTH HILL*    MOCLDY    55  52  88 CALM      30.03S                  
LAWRENCEVILLE* MOCLDY    53  47  82 CALM      29.98S                  
ROANOKE RAPIDS MOCLDY    48  46  93 CALM      29.99F                  
RALEIGH        MOCLDY    52  48  86 CALM      29.99S                  
$$

VAZ088>098-210400-
SOUTHEAST VIRGINIA
  
CITY           SKY/WX    TMP DP  RH WIND       PRES   REMARKS
NORFOLK        MOCLDY    58  51  78 S7        29.99F                  
VIRGINIA BEACH MOCLDY    61  50  67 S6        29.99F                  
NORFOLK NAVAL  MOCLDY    63  53  70 CALM      30.00F                  
WEST POINT*    PTCLDY    54  49  83 SE3       29.99S                  
NEWPORT NEWS   MOCLDY    57  51  80 CALM      29.99F                  
LANGLEY AFB    CLOUDY    60  53  77 S5        29.99F                  
FORT EUSTIS    MOCLDY    61  55  82 SE2       29.97F                  
WILLIAMSBURG*  PTCLDY    55  54  94 S5        30.00S                  
HR EXEC AP*    MOCLDY    48  45  87 S3        30.01F                  
FRANKLIN*      MOCLDY    57  52  82 S3        29.99F                  
WAKEFIELD      PTCLDY    51  48  89 CALM      29.99S                  
$$

VAZ020-022-025-037-045-210400-
WEST CENTRAL AND SOUTHWEST VIRGINIA
  
CITY           SKY/WX    TMP DP  RH WIND       PRES   REMARKS
STAUNTON*      CLOUDY    58  47  68 S6        29.96S                  
HOT SPRINGS VA PTCLDY    48  40  75 W16       29.96S                  
LYNCHBURG      CLOUDY    53  49  86 CALM      29.97S                  
DANVILLE       MOCLDY    58  48  69 S3        29.98S                  
SOUTH BOSTON*  NOT AVBL                                               
MARTINSVILLE   MOCLDY    53  53 100 CALM      30.00S                  
ROANOKE        CLOUDY    57  42  57 W3        29.98S                  
BLACKSBURG     CLOUDY    50  48  93 CALM      30.01R                  
DUBLIN*        CLOUDY    54  48  82 SW3       30.00S                  
MARION*        MOCLDY    51  46  83 SW6       30.03R                  
HILLSVILLE*    CLOUDY    53  48  83 SW6       30.01S                  
RICHLANDS*     CLOUDY    56  49  75 SW8G16    30.00S                  
WISE*          PTCLDY    52  45  76 SW7       30.02S                  
ABINGDON*      CLOUDY    55  50  83 CALM      30.01S                  
$$

MDZ021>025-VAZ099-100-210400-
SOUTHERN MARYLAND AND THE DELMARVA PENINSULA
  
CITY           SKY/WX    TMP DP  RH WIND       PRES   REMARKS
PATUXENT RIVER MOCLDY    55  45  68 CALM      29.97F                  
BAY BRIDGE APT   N/A     61  43  51 S6        29.97S                  
LEONARDTOWN    MOCLDY    55  43  62 CALM      29.99S                  
DOVER          MOCLDY    53  45  74 S7        29.96F                  
GEORGETOWN     CLOUDY    52  45  77 CALM      30.00S                  
EASTON         MOCLDY    55  49  80 CALM      30.01                   
CAMBRIDGE      MOCLDY    55  48  76 S3        29.98S                  
SALISBURY      CLOUDY    51  46  83 E3        29.99F                  
OCEAN CITY     MOCLDY    52  47  83 CALM      29.99F                  
WALLOPS ISLAND MOCLDY    58  48  69 SW7       29.99F                  
ACCOMACK*      MOCLDY    57  46  67 S6        29.99S                  
$$

NCZ012>017-030>032-210400-
EASTERN NORTH CAROLINA
  
CITY           SKY/WX    TMP DP  RH WIND       PRES   REMARKS
ELIZABETH CITY PTCLDY    60  54  80 S5        30.01F                  
AHOSKIE*         N/A     50  49  95 CALM      30.00F                  
EDENTON*       PTCLDY    62  57  85 S6        30.00F                  
CURRITUCK*     PTCLDY    59  54  81 CALM      30.01F                  
KILL DEVIL HLS PTCLDY    63  58  86 S3        30.00F                  
MANTEO         MOCLDY    61  57  88 CALM      30.02F                  
CAPE HATTERAS  MOCLDY    71  57  61 S10       30.02F                  
TARBORO*       MOCLDY    53  52  95 CALM      30.01S                  
GOLDSBORO      PTCLDY    60  59  98 SE2       29.99S                  
WASHINGTON     MOCLDY    61  55  82 CALM      30.01F                  
GREENVILLE     PTCLDY    59  54  82 CALM      30.02F                  
NEW BERN       MOCLDY    59  55  87 CALM      30.02F                  
WILMINGTON     PTCLDY    58  56  93 CALM      30.00F                  
$$

VAZ048-210400-
ELSEWHERE
  
CITY           SKY/WX    TMP DP  RH WIND       PRES   REMARKS
HARRISBURG PA  CLOUDY    54  47  77 S9        29.92F                  
BALTIMORE      MOCLDY    57  43  59 CALM      29.95F                  
ANNAPOLIS      PTCLDY    60  42  51 S6        29.96F                  
ANDREWS AFB    CLOUDY    54  45  73 S8        29.96S                  
WILMINGTON DE  CLOUDY    55  45  68 S6        29.98S                  
PHILADELPHIA   CLOUDY    56  43  61 S8        29.98S                  
WILDWOOD NJ*   CLOUDY    57  45  62 S5        30.00F                  
ATLANTIC CITY  MOCLDY    55  45  68 S6        29.99F                  
HENDERSON NC   PTCLDY    54  47  77 CALM      29.99S                  
GREENSBORO     CLOUDY    59  50  72 SW7       29.98S                  
ROCKY MOUNT    PTCLDY    53  51  93 CALM      30.00S                  
FAYETTEVILLE   PTCLDY    61  56  83 S6        29.99F                  
CHARLOTTE      LGT RAIN  58  50  75 CALM      30.00S                  
$$

VAZ100-210400-
MARINE
  
STATION/POSITION TIME  TEMP    WIND        PRES    WAVE   SWELL
                       AIR SEA DIR/SP/G            HT/PER HT/PER
                 (UTC) (F)     (DEG/KT/KT) (MB)    (FT/S) (FT/S)
44066 TX TWR #4  0300   63 66  220/ 17/ 21 1016.3F   5/ 5   2/10
15NM E FENWICK I 0300   66 66  220/ 17/ 21 1015.3F   5/ 5   2/10
THOMAS POINT MD  0300   62 64  200/ 15/ 16 1015.6F
GOOSES REEF MD   0300   63     210/ 12/ 14 1015.2F
POTOMAC MD       0300   62     210/ 10/ 12 1014.4F
STINGRAY PT      0300   64     200/ 10/ 12 1015.8F
JAMESTOWN VA     0300   59     190/  6/  8   N/A
CHESAPEAKE LGHT  0200   66     200/ 19/ 20 1016.3S
CAPE HENRY BUOY  0300      68                N/A     3/ 5   2/11
1ST LANDING BUOY 0300   63     190/ 12/ 14 1015.5S
CAPE CHARLES BUO 0300      68                N/A     3/ 5   2/13
64NM E OF VA BCH 0300   71 69  220/ 17/ 21 1015.7F   4/ 5   2/11
44100 DUCK FRF   0200      71                N/A     3/11   2/11
44056 DUCK FRF   0300                        N/A     2/13   2/13
DIAMOND SHLS NC  0300   72     180/ 16/ 19 1016.9F   4/ 9   3/ 9
CAPE LOOKOUT NC  0200   73     170/ 10/ 11 1016.4F
$$

Return to Home page


Western Regional Climate Center, wrcc@dri.edu